QPF
0.13 0.00 0.03 0.05 0.03 0.02 0.00 0.00 0.01 0.00 0.00 0.00 0.00 0.00 0.00 0.00 0.00 0.00 0.00 0.00 0.00 0.00 0.00 0.00 0.00 0.00 0.00 0.00 0.00 0.00 0.00 0.00 0.00 0.00 0.00 0.00 0.00 0.00 0.00 0.00 0.00 0.00 0.00 0.00
0.05 0.00 0.00 0.01 0.01 0.00 0.00 0.00 0.00 0.00 0.00 0.00 0.00 0.00 0.00 0.00 0.00 0.00 0.00 0.00 0.00 0.00 0.00 0.00 0.00 0.00 0.00 0.00 0.00 0.00 0.00 0.00 0.00 0.00 0.00 0.00 0.00 0.00 0.00 0.00 0.00 0.00 0.00 0.00
0.01 0.01 0.00 0.00 0.00 0.00 0.00 0.00 0.00 0.00 0.00 0.00 0.00 0.00 0.00 0.00 0.00 0.00 0.00 0.00 0.00 0.00 0.00 0.00 0.00 0.00 0.00 0.00 0.00 0.00 0.00 0.00 0.00 0.00 0.00 0.00 0.00 0.00 0.00 0.00 0.00 0.00 0.00 0.00
0.00 0.00 0.00 0.00 0.00 0.00 0.00 0.00 0.00 0.00 0.00 0.00 0.00 0.00 0.00 0.00 0.00 0.00 0.00 0.00 0.00 0.00 0.00 0.00 0.00 0.00 0.00 0.00 0.00 0.00 0.00 0.00 0.00 0.00 0.00 0.00 0.00 0.00 0.00 0.00 0.00 0.00 0.00 0.00
0.00 0.00 0.00 0.00 0.00 0.00 0.00 0.00 0.00 0.00 0.00 0.00 0.00 0.00 0.00 0.00 0.00 0.00 0.00 0.00 0.00 0.00 0.00 0.00 0.00 0.00 0.00 0.00 0.00 0.00 0.00 0.00 0.00 0.00 0.00 0.00 0.00 0.00 0.00 0.00 0.00 0.00 0.00 0.00
0.00 0.00 0.00 0.00 0.00 0.00 0.00 0.00 0.00 0.00 0.00 0.00 0.00 0.00 0.00 0.00 0.00 0.00 0.00 0.00 0.00 0.00 0.00 0.00 0.00 0.00 0.00 0.00 0.00 0.00 0.00 0.00 0.00 0.00 0.00 0.00 0.00 0.00 0.00 0.00 0.00 0.00 0.00 0.00
0.00 0.00 0.00 0.00 0.00 0.00 0.00 0.00 0.00 0.00 0.00 0.00 0.00 0.00 0.00 0.00 0.00 0.00 0.00 0.00 0.00 0.00 0.00 0.00 0.00 0.00 0.00 0.00 0.00 0.00 0.00 0.00 0.00 0.00 0.00 0.00 0.00 0.00 0.00 0.00 0.00 0.00 0.00 0.00
0.00 0.00 0.00 0.00 0.00 0.00 0.00 0.00 0.00 0.00 0.00 0.00 0.00 0.00 0.00 0.00 0.00 0.00 0.00 0.00 0.00 0.00 0.00 0.00 0.00 0.00 0.00 0.00 0.00 0.00 0.00 0.00 0.00 0.00 0.00 0.00 0.00 0.00 0.00 0.00 0.00 0.00 0.00 0.00
0.00 0.00 0.00 0.00 0.00 0.00 0.00 0.00 0.00 0.00 0.00 0.00 0.00 0.00 0.00 0.00 0.00 0.00 0.00 0.00 0.00 0.00 0.00 0.00 0.00 0.00 0.00 0.00 0.00 0.00 0.00 0.00 0.00 0.00 0.00 0.00 0.00 0.00 0.00 0.00 0.00 0.00 0.00 0.00
0.00 0.00 0.00 0.00 0.00 0.00 0.00 0.00 0.00 0.00 0.00 0.00 0.00 0.00 0.00 0.00 0.00 0.00 0.00 0.00 0.00 0.00 0.00 0.00 0.00 0.00 0.00 0.00 0.00 0.00 0.00 0.00 0.00 0.00 0.00 0.00 0.00 0.00 0.00 0.00 0.00 0.00 0.00 0.00
0.00 0.00 0.00 0.00 0.00 0.00 0.00 0.00 0.00 0.00 0.00 0.00 0.00 0.00 0.00 0.00 0.00 0.00 0.00 0.00 0.00 0.00 0.00 0.00 0.00 0.00 0.00 0.00 0.00 0.00 0.00 0.00 0.00 0.00 0.00 0.00 0.00 0.00 0.00 0.00 0.00 0.00 0.00 0.00
0.00 0.00 0.00 0.00 0.00 0.00 0.00 0.00 0.00 0.00 0.00 0.00 0.00 0.00 0.00 0.00 0.00 0.00 0.00 0.00 0.00 0.00 0.00 0.00 0.00 0.00 0.00 0.00 0.00 0.00 0.00 0.00 0.00 0.00 0.00 0.00 0.00 0.00 0.00 0.00 0.00 0.00 0.00 0.00
0.00 0.00 0.00 0.00 0.00 0.00 0.00 0.00 0.00 0.00 0.00 0.00 0.00 0.00 0.00 0.00 0.00 0.00 0.00 0.00 0.00 0.00 0.00 0.00 0.00 0.00 0.00 0.00 0.00 0.00 0.00 0.00 0.00 0.00 0.00 0.00 0.00 0.00 0.00 0.00 0.00 0.00 0.00 0.00
0.00 0.00 0.00 0.00 0.00 0.00 0.00 0.00 0.00 0.00 0.00 0.00 0.00 0.00 0.00 0.00 0.00 0.00 0.00 0.00 0.00 0.00 0.00 0.00 0.00 0.00 0.00 0.00 0.00 0.00 0.00 0.00 0.00 0.00 0.00 0.00 0.00 0.00 0.00 0.00 0.00 0.00 0.00 0.00
0.00 0.00 0.00 0.00 0.00 0.00 0.00 0.00 0.00 0.00 0.00 0.00 0.00 0.00 0.00 0.00 0.00 0.00 0.00 0.00 0.00 0.00 0.00 0.00 0.00 0.00 0.00 0.00 0.00 0.00 0.00 0.00 0.00 0.00 0.00 0.00 0.00 0.00 0.00 0.00 0.00 0.00 0.00 0.00
0.00 0.00 0.00 0.00 0.00 0.00 0.00 0.00 0.00 0.00 0.00 0.00 0.00 0.00 0.00 0.00 0.00 0.00 0.00 0.00 0.00 0.00 0.00 0.00 0.00 0.00 0.00 0.00 0.00 0.00 0.00 0.00 0.00 0.00 0.00 0.00 0.00 0.00 0.00 0.00 0.00 0.00 0.00 0.00
0.00 0.00 0.00 0.00 0.00 0.00 0.00 0.00 0.00 0.00 0.00 0.00 0.00 0.00 0.00 0.00 0.00 0.00 0.00 0.00 0.00 0.00 0.00 0.00 0.00 0.00 0.00 0.00 0.00 0.00 0.00 0.00 0.00 0.00 0.00 0.00 0.00 0.00 0.00 0.00 0.00 0.00 0.00 0.00
0.00 0.00 0.00 0.00 0.00 0.00 0.00 0.00 0.00 0.00 0.00 0.00 0.00 0.00 0.00 0.00 0.00 0.00 0.00 0.00 0.00 0.00 0.00 0.00 0.00 0.00 0.00 0.00 0.00 0.00 0.00 0.00 0.00 0.00 0.00 0.00 0.00 0.00 0.00 0.00 0.00 0.00 0.00 0.00
0.00 0.00 0.00 0.00 0.00 0.00 0.00 0.00 0.00 0.00 0.00 0.00 0.00 0.00 0.00 0.00 0.00 0.00 0.00 0.00 0.00 0.00 0.00 0.00 0.00 0.00 0.00 0.00 0.00 0.00 0.00 0.00 0.00 0.00 0.00 0.00 0.00 0.00 0.00 0.00 0.00 0.00 0.00 0.00
0.00 0.00 0.00 0.00 0.00 0.00 0.00 0.00 0.00 0.00 0.00 0.00 0.00 0.00 0.00 0.00 0.00 0.00 0.00 0.00 0.00 0.00 0.00 0.00 0.00 0.00 0.00 0.00 0.00 0.00 0.00 0.00 0.00 0.00 0.00 0.00 0.00 0.00 0.00 0.00 0.00 0.00 0.00 0.00
0.00 0.00 0.00 0.00 0.00 0.00 0.00 0.00 0.00 0.00 0.00 0.00 0.00 0.00 0.00 0.00 0.00 0.00 0.00 0.00 0.00 0.00 0.00 0.00 0.00 0.00 0.00 0.00 0.00 0.00 0.00 0.00 0.00 0.00 0.00 0.00 0.00 0.00 0.00 0.00 0.00 0.00 0.00 0.00
0.00 0.00 0.00 0.00 0.00 0.00 0.00 0.00 0.00 0.00 0.00 0.00 0.00 0.00 0.00 0.00 0.00 0.00 0.00 0.00 0.00 0.00 0.00 0.00 0.00 0.00 0.00 0.00 0.00 0.00 0.00 0.00 0.00 0.00 0.00 0.00 0.00 0.00 0.00 0.00 0.00 0.00 0.00 0.00
0.00 0.00 0.00 0.00 0.00 0.00 0.00 0.00 0.00 0.00 0.00 0.00 0.00 0.00 0.00 0.00 0.00 0.00 0.00 0.00 0.00 0.00 0.00 0.00 0.00 0.00 0.00 0.00 0.00 0.00 0.00 0.00 0.00 0.00 0.00 0.00 0.00 0.00 0.00 0.00 0.00 0.00 0.00 0.00
0.00 0.00 0.00 0.00 0.00 0.00 0.00 0.00 0.00 0.00 0.00 0.00 0.00 0.00 0.00 0.00 0.00 0.00 0.00 0.00 0.00 0.00 0.00 0.00 0.00 0.00 0.00 0.00 0.00 0.00 0.00 0.00 0.00 0.00 0.00 0.00 0.00 0.00 0.00 0.00 0.00 0.00 0.00 0.00
0.00 0.00 0.00 0.00 0.00 0.00 0.00 0.00 0.00 0.00 0.00 0.00 0.00 0.00 0.00 0.00 0.00 0.00 0.00 0.00 0.00 0.00 0.00 0.00 0.00 0.00 0.00 0.00 0.00 0.00 0.00 0.00 0.00 0.00 0.00 0.00 0.00 0.00 0.00 0.00 0.00 0.00 0.00 0.00
0.00 0.00 0.00 0.00 0.00 0.00 0.00 0.00 0.00 0.00 0.00 0.00 0.00 0.00 0.00 0.00 0.00 0.00 0.00 0.00 0.00 0.00 0.00 0.00 0.00 0.00 0.00 0.00 0.00 0.00 0.00 0.00 0.00 0.00 0.00 0.00 0.00 0.00 0.00 0.00 0.00 0.00 0.00 0.00
0.00 0.00 0.00 0.00 0.00 0.00 0.00 0.00 0.00 0.00 0.00 0.00 0.00 0.00 0.00 0.00 0.00 0.00 0.00 0.00 0.00 0.00 0.00 0.00 0.00 0.00 0.00 0.00 0.00 0.00 0.00 0.00 0.00 0.00 0.00 0.00 0.00 0.00 0.00 0.00 0.00 0.00 0.00 0.00
MSLP
1003.59 1002.62 1001.92 1001.62 1001.45 1002.33 1002.44 1000.85 1000.25 1000.64 1000.20 1000.49 1000.68 1000.89 1001.37 1002.08 1003.11 1004.12 1005.10 1006.06 1007.07 1008.30 1009.51 1010.58 1011.57 1012.50 1013.35 1014.12 1014.73 1015.33 1016.01 1016.52 1016.92 1017.09 1017.19 1017.34 1017.46 1017.45 1017.41 1017.40 1017.33 1017.22 1017.00 1016.70
1001.47 1000.83 1001.20 1000.61 1000.14 1000.80 1001.24 1000.21 1000.04 1000.14 1000.06 999.95 1000.71 1001.20 1001.92 1002.32 1002.99 1003.93 1004.94 1006.07 1007.14 1008.25 1009.35 1010.39 1011.35 1012.38 1013.40 1014.25 1014.92 1015.49 1016.17 1016.69 1016.97 1017.14 1017.29 1017.43 1017.41 1017.41 1017.43 1017.40 1017.29 1017.08 1016.89 1016.63
1002.06 1001.21 1001.05 1000.85 999.71 999.77 999.66 999.35 999.57 999.94 1000.20 1000.18 1001.28 1001.81 1002.13 1002.65 1003.01 1003.77 1004.84 1005.83 1006.89 1007.91 1008.98 1010.07 1011.17 1012.23 1013.49 1014.33 1015.04 1015.73 1016.34 1016.80 1017.07 1017.22 1017.41 1017.43 1017.49 1017.55 1017.58 1017.52 1017.37 1017.14 1016.82 1016.48
1001.98 1001.25 1000.79 999.22 998.45 998.64 999.22 999.38 999.57 999.75 1000.29 1000.70 1001.56 1002.56 1002.95 1002.90 1003.08 1003.87 1004.60 1005.67 1006.76 1007.78 1008.99 1010.15 1011.30 1012.50 1013.57 1014.47 1015.25 1015.92 1016.45 1016.83 1017.09 1017.26 1017.35 1017.47 1017.65 1017.77 1017.79 1017.55 1017.41 1017.12 1016.77 1016.39
1002.88 1001.84 1000.52 999.44 998.97 998.92 999.09 999.35 999.53 999.96 1000.42 1001.36 1002.32 1002.78 1004.01 1003.93 1003.64 1004.16 1004.76 1005.81 1006.83 1007.89 1009.10 1010.48 1011.70 1012.87 1013.90 1014.89 1015.50 1016.13 1016.66 1016.97 1017.13 1017.19 1017.37 1017.67 1017.85 1017.90 1017.72 1017.56 1017.30 1016.94 1016.51 1016.19
1003.31 1002.77 1001.18 999.87 999.25 998.97 999.08 999.88 999.98 1000.26 1000.58 1001.61 1002.48 1003.90 1005.44 1005.50 1005.15 1005.55 1006.00 1006.73 1007.77 1008.91 1010.07 1011.15 1012.51 1013.24 1014.20 1015.23 1015.89 1016.47 1016.73 1016.94 1017.11 1017.27 1017.50 1017.76 1017.88 1017.82 1017.52 1017.34 1017.03 1016.67 1016.38 1016.08
1003.26 1002.80 1001.22 999.78 999.33 999.06 999.83 1000.93 1000.43 1000.55 1000.87 1001.86 1003.01 1003.94 1005.44 1006.25 1006.58 1006.96 1007.51 1008.32 1009.14 1010.10 1011.15 1012.18 1013.03 1013.76 1014.81 1015.56 1016.24 1016.59 1016.81 1017.01 1017.23 1017.37 1017.60 1017.65 1017.67 1017.58 1017.38 1017.12 1016.92 1016.73 1016.43 1015.87
1003.35 1002.90 1001.74 999.81 999.76 1000.00 1000.68 1000.93 1001.37 1001.44 1001.81 1002.93 1004.04 1005.15 1006.33 1007.16 1007.84 1008.30 1008.96 1009.77 1010.38 1011.26 1012.28 1013.04 1013.63 1014.31 1015.44 1016.13 1016.46 1016.72 1017.01 1017.23 1017.40 1017.57 1017.60 1017.55 1017.64 1017.37 1017.08 1017.12 1016.94 1016.48 1015.97 1015.46
1002.10 1001.30 1000.42 1000.27 1000.30 1000.49 1000.84 1001.53 1002.35 1002.69 1003.49 1003.85 1005.13 1006.33 1007.22 1008.10 1008.67 1009.29 1009.92 1010.66 1011.38 1012.14 1013.11 1013.89 1014.37 1014.91 1015.86 1016.39 1016.66 1016.99 1017.29 1017.53 1017.69 1017.68 1017.68 1017.62 1017.49 1017.36 1017.29 1017.06 1016.65 1016.12 1015.63 1015.08
1001.50 1000.87 1000.70 1000.79 1000.92 1001.06 1001.47 1002.11 1002.92 1003.51 1004.22 1004.88 1005.89 1007.10 1008.00 1008.73 1009.45 1010.16 1010.85 1011.57 1012.26 1013.05 1013.95 1014.72 1015.06 1015.49 1016.02 1016.53 1016.83 1017.24 1017.57 1017.73 1017.84 1017.86 1017.68 1017.50 1017.48 1017.46 1017.24 1016.76 1016.28 1015.83 1015.31 1014.77
1001.16 1001.15 1001.14 1001.31 1001.49 1001.86 1002.46 1003.02 1003.78 1004.48 1005.01 1005.82 1006.41 1007.76 1008.46 1009.38 1010.17 1010.88 1011.58 1012.32 1012.98 1013.77 1014.53 1015.25 1015.62 1016.14 1016.53 1016.77 1017.09 1017.51 1017.78 1017.96 1017.93 1017.82 1017.82 1017.86 1017.71 1017.41 1017.02 1016.54 1016.06 1015.46 1015.05 1014.61
1000.05 1000.05 1000.40 1001.01 1001.75 1002.41 1003.03 1003.86 1004.40 1004.88 1006.07 1006.80 1007.17 1008.00 1008.98 1009.96 1010.69 1011.38 1012.15 1012.84 1013.59 1014.31 1014.97 1015.66 1016.08 1016.52 1016.88 1017.06 1017.36 1017.76 1017.97 1017.98 1017.91 1017.92 1017.93 1017.84 1017.59 1017.09 1016.69 1016.24 1015.83 1015.43 1014.94 1014.35
999.75 999.95 1000.63 1001.48 1002.38 1003.10 1003.86 1004.73 1005.27 1005.81 1006.59 1007.35 1008.24 1008.71 1009.52 1010.47 1011.28 1011.90 1012.62 1013.30 1013.99 1014.69 1015.33 1015.86 1016.38 1016.84 1017.15 1017.44 1017.66 1017.84 1017.93 1017.93 1017.98 1018.02 1017.92 1017.70 1017.24 1016.85 1016.41 1015.94 1015.68 1015.21 1014.69 1014.13
1000.23 1000.59 1002.21 1002.57 1003.46 1004.11 1004.76 1005.70 1006.21 1006.99 1007.67 1008.27 1008.97 1009.69 1010.30 1011.14 1011.96 1012.64 1013.31 1013.85 1014.42 1015.09 1015.70 1016.17 1016.72 1017.21 1017.45 1017.57 1017.74 1017.95 1018.03 1018.07 1018.05 1017.93 1017.70 1017.35 1017.04 1016.82 1016.52 1015.93 1015.15 1014.69 1014.47 1014.05
1001.29 1001.18 1001.90 1003.13 1004.19 1005.19 1005.85 1006.48 1007.37 1008.26 1008.93 1009.61 1010.11 1010.64 1011.30 1012.14 1012.90 1013.52 1013.99 1014.40 1014.98 1015.60 1016.20 1016.63 1017.14 1017.51 1017.56 1017.75 1017.95 1018.10 1018.16 1018.08 1017.86 1017.64 1017.41 1017.18 1016.97 1016.67 1016.30 1015.85 1015.41 1014.80 1014.12 1013.68
1002.59 1002.91 1003.52 1004.15 1005.28 1006.16 1006.77 1007.61 1008.15 1009.27 1009.92 1010.57 1011.08 1011.68 1012.26 1012.86 1013.57 1014.23 1014.70 1015.07 1015.60 1016.32 1016.75 1017.04 1017.39 1017.74 1017.86 1017.90 1018.03 1018.21 1018.25 1017.93 1017.54 1017.45 1017.25 1017.01 1016.78 1016.41 1016.00 1015.67 1015.31 1014.77 1014.20 1013.65
1003.29 1004.52 1004.94 1005.57 1006.01 1006.81 1007.35 1008.09 1008.75 1009.59 1010.46 1011.15 1011.77 1012.33 1013.02 1013.72 1014.34 1014.96 1015.49 1015.69 1016.10 1016.66 1017.06 1017.39 1017.82 1017.87 1017.82 1017.95 1018.15 1018.30 1018.24 1017.95 1017.39 1017.30 1017.16 1016.94 1016.64 1016.26 1015.95 1015.58 1015.13 1014.61 1014.16 1013.71
1002.43 1003.34 1004.17 1004.58 1005.76 1006.93 1007.99 1008.74 1009.43 1010.16 1010.93 1011.65 1012.30 1012.97 1013.65 1014.25 1014.98 1015.57 1016.03 1016.41 1016.94 1017.40 1017.62 1017.74 1017.78 1017.90 1018.04 1018.09 1018.13 1018.07 1017.93 1017.84 1017.62 1017.36 1017.09 1016.77 1016.43 1016.15 1015.88 1015.46 1015.00 1014.52 1014.04 1013.57
1003.14 1003.88 1004.98 1005.84 1006.58 1007.43 1008.42 1009.37 1010.19 1010.86 1011.51 1012.13 1012.78 1013.59 1014.14 1014.74 1015.38 1015.94 1016.42 1017.00 1017.41 1017.60 1018.01 1017.94 1017.98 1018.13 1018.19 1018.11 1017.94 1017.98 1017.94 1017.79 1017.51 1017.24 1016.97 1016.66 1016.34 1016.12 1015.74 1015.39 1015.00 1014.62 1014.18 1013.56
1004.09 1004.69 1005.56 1006.69 1007.51 1008.14 1009.28 1010.22 1010.80 1011.48 1012.10 1012.66 1013.40 1014.15 1014.87 1015.40 1015.82 1016.37 1016.83 1017.45 1017.67 1017.84 1018.08 1018.18 1018.24 1018.31 1018.33 1018.19 1017.91 1017.94 1017.85 1017.74 1017.56 1017.33 1017.03 1016.64 1016.38 1016.01 1015.71 1015.43 1015.09 1014.68 1014.15 1013.56
1004.84 1005.67 1006.40 1007.39 1008.60 1009.42 1010.16 1010.86 1011.48 1012.27 1012.90 1013.31 1013.94 1014.71 1015.28 1015.89 1016.28 1016.70 1017.19 1017.78 1018.27 1018.19 1018.22 1018.21 1018.28 1018.41 1018.24 1018.04 1018.03 1018.01 1017.92 1017.84 1017.70 1017.43 1017.10 1016.76 1016.39 1016.11 1015.76 1015.44 1015.03 1014.55 1014.00 1013.45
1005.70 1006.53 1007.43 1008.39 1009.35 1010.47 1011.25 1011.79 1012.35 1012.98 1013.55 1014.12 1014.76 1015.26 1015.85 1016.53 1016.92 1017.30 1017.59 1018.02 1018.43 1018.37 1018.41 1018.50 1018.47 1018.25 1018.15 1018.13 1018.23 1018.20 1018.11 1017.95 1017.69 1017.36 1017.06 1016.75 1016.44 1016.08 1015.70 1015.31 1014.81 1014.36 1013.85 1013.39
1006.64 1007.60 1008.51 1009.52 1010.41 1011.45 1012.29 1012.93 1013.42 1013.74 1014.24 1014.80 1015.37 1015.93 1016.45 1016.94 1017.32 1017.76 1018.33 1018.63 1018.63 1018.51 1018.63 1018.58 1018.33 1018.20 1018.14 1018.39 1018.40 1018.32 1018.17 1017.91 1017.60 1017.35 1017.02 1016.67 1016.39 1016.02 1015.64 1015.16 1014.60 1014.16 1013.65 1013.13
1007.76 1008.84 1009.75 1010.69 1011.39 1012.17 1013.14 1014.07 1014.24 1014.68 1015.08 1015.64 1016.15 1016.63 1017.04 1017.58 1018.18 1018.30 1018.36 1018.52 1018.57 1018.68 1018.71 1018.60 1018.53 1018.42 1018.54 1018.65 1018.53 1018.35 1018.12 1017.88 1017.62 1017.26 1016.86 1016.39 1016.26 1015.81 1015.41 1014.90 1014.40 1013.93 1013.52 1012.95
1008.82 1009.75 1010.55 1011.31 1012.10 1013.10 1013.74 1014.50 1015.05 1015.61 1016.04 1016.69 1017.20 1017.56 1017.74 1017.82 1018.01 1018.84 1018.87 1018.98 1018.87 1019.00 1019.12 1018.96 1018.73 1018.58 1018.61 1018.53 1018.39 1018.19 1018.00 1017.79 1017.42 1016.86 1016.64 1016.35 1015.94 1015.60 1015.23 1014.83 1014.40 1013.85 1013.14 1012.78
1009.76 1010.58 1011.34 1011.89 1012.57 1013.37 1014.13 1014.70 1015.38 1016.18 1016.68 1017.35 1017.92 1018.18 1018.40 1018.55 1018.72 1019.05 1019.16 1019.21 1019.26 1019.31 1019.37 1019.22 1019.02 1018.84 1018.69 1018.48 1018.23 1018.11 1017.85 1017.58 1017.22 1016.87 1016.48 1016.25 1015.89 1015.52 1015.08 1014.65 1014.18 1013.61 1013.01 1012.46
1010.80 1011.33 1012.06 1012.90 1013.46 1013.97 1014.51 1015.08 1015.73 1016.53 1017.02 1017.46 1018.10 1018.64 1018.83 1018.99 1019.09 1019.33 1019.41 1019.59 1019.63 1019.61 1019.49 1019.26 1019.08 1018.90 1018.69 1018.43 1018.27 1018.04 1017.83 1017.49 1017.14 1016.78 1016.46 1016.10 1015.65 1015.26 1014.85 1014.34 1013.75 1013.17 1012.62 1012.10
Thickness
5551 5562 5575 5582 5583 5580 5588 5609 5613 5615 5626 5631 5638 5644 5647 5650 5646 5642 5638 5634 5628 5619 5609 5601 5593 5585 5578 5569 5562 5556 5549 5541 5535 5530 5525 5519 5512 5507 5501 5494 5486 5478 5469 5462
5579 5591 5583 5589 5598 5599 5599 5618 5623 5624 5631 5648 5640 5640 5639 5643 5645 5641 5636 5630 5622 5614 5605 5597 5589 5579 5570 5560 5552 5547 5538 5530 5525 5519 5514 5507 5502 5496 5488 5480 5471 5463 5455 5448
5572 5584 5585 5583 5602 5603 5613 5624 5626 5619 5629 5638 5634 5638 5639 5636 5643 5638 5631 5624 5617 5612 5603 5593 5582 5572 5560 5551 5543 5534 5526 5520 5514 5508 5502 5496 5489 5482 5474 5465 5456 5449 5442 5435
5577 5582 5573 5605 5619 5621 5618 5622 5624 5631 5631 5637 5629 5623 5625 5635 5637 5633 5629 5621 5614 5607 5595 5584 5572 5561 5550 5541 5532 5525 5517 5510 5504 5498 5492 5484 5476 5467 5458 5450 5443 5436 5430 5422
5565 5573 5592 5608 5614 5618 5615 5618 5626 5627 5628 5621 5618 5622 5614 5616 5626 5626 5622 5614 5605 5596 5585 5573 5562 5551 5540 5530 5522 5513 5506 5499 5493 5487 5480 5471 5461 5452 5445 5438 5431 5425 5417 5408
5556 5560 5578 5603 5613 5619 5623 5606 5620 5623 5625 5622 5621 5612 5598 5600 5606 5602 5601 5597 5588 5578 5568 5559 5547 5540 5530 5518 5509 5502 5496 5490 5483 5476 5467 5457 5448 5440 5434 5427 5421 5413 5404 5393
5565 5565 5576 5605 5612 5617 5607 5605 5614 5619 5623 5620 5616 5609 5591 5585 5583 5583 5581 5575 5570 5562 5553 5543 5535 5527 5516 5507 5498 5491 5485 5479 5471 5463 5454 5445 5437 5430 5424 5418 5409 5400 5390 5379
5562 5562 5563 5607 5608 5609 5603 5608 5604 5602 5605 5597 5592 5586 5578 5574 5570 5568 5562 5556 5552 5545 5537 5528 5522 5515 5501 5492 5486 5480 5473 5466 5458 5449 5441 5435 5426 5420 5414 5405 5395 5386 5377 5367
5574 5583 5599 5600 5603 5605 5604 5602 5598 5593 5589 5590 5581 5573 5568 5561 5559 5555 5551 5544 5539 5533 5521 5512 5506 5499 5489 5481 5476 5468 5461 5453 5444 5436 5429 5422 5416 5409 5399 5390 5380 5373 5362 5352
5583 5591 5594 5595 5599 5602 5599 5594 5588 5586 5584 5581 5572 5565 5557 5553 5549 5545 5539 5531 5524 5516 5506 5497 5493 5487 5480 5472 5465 5456 5446 5438 5431 5424 5420 5412 5403 5394 5384 5375 5365 5355 5344 5334
5581 5583 5588 5591 5594 5587 5584 5583 5578 5575 5575 5569 5566 5555 5552 5545 5538 5532 5525 5518 5512 5503 5495 5486 5480 5473 5466 5459 5451 5441 5433 5426 5420 5414 5407 5398 5389 5380 5371 5358 5346 5337 5324 5310
5587 5594 5595 5591 5583 5582 5581 5575 5574 5571 5561 5557 5558 5551 5543 5534 5528 5522 5514 5506 5498 5489 5482 5474 5467 5460 5453 5446 5438 5429 5422 5416 5409 5403 5394 5386 5378 5369 5356 5345 5331 5317 5303 5290
5596 5594 5588 5582 5575 5575 5569 5563 5562 5560 5556 5550 5542 5540 5534 5525 5516 5513 5502 5494 5486 5478 5470 5463 5455 5446 5440 5432 5425 5419 5412 5406 5398 5392 5383 5375 5366 5357 5350 5336 5317 5302 5288 5277
5583 5585 5572 5575 5567 5563 5561 5554 5551 5545 5540 5537 5531 5525 5520 5511 5503 5494 5488 5482 5474 5466 5458 5450 5442 5434 5427 5421 5415 5408 5402 5398 5388 5380 5372 5363 5352 5340 5328 5319 5312 5297 5277 5262
5571 5577 5576 5563 5556 5549 5547 5543 5536 5529 5524 5517 5513 5510 5503 5494 5485 5478 5473 5468 5461 5453 5445 5437 5429 5421 5416 5410 5404 5398 5391 5384 5378 5369 5359 5350 5337 5324 5312 5300 5287 5276 5267 5255
5550 5554 5555 5551 5542 5535 5532 5526 5524 5514 5509 5502 5498 5492 5485 5478 5470 5464 5459 5454 5448 5438 5431 5425 5417 5410 5405 5400 5394 5387 5379 5375 5368 5356 5345 5333 5322 5311 5299 5286 5272 5260 5250 5243
5546 5529 5533 5528 5530 5525 5523 5518 5514 5506 5498 5490 5483 5477 5470 5462 5457 5451 5445 5440 5434 5426 5419 5413 5406 5401 5397 5391 5383 5375 5367 5359 5354 5340 5329 5318 5307 5295 5282 5270 5259 5249 5239 5230
5551 5544 5542 5540 5530 5519 5509 5504 5499 5493 5485 5477 5471 5465 5458 5453 5446 5439 5432 5425 5418 5411 5407 5402 5397 5392 5387 5380 5373 5365 5356 5346 5336 5325 5315 5304 5293 5280 5267 5256 5247 5239 5231 5224
5536 5532 5524 5517 5513 5507 5498 5491 5483 5477 5471 5466 5461 5454 5450 5443 5435 5428 5420 5414 5407 5402 5395 5392 5388 5381 5375 5369 5362 5351 5341 5332 5322 5311 5300 5290 5276 5263 5252 5244 5236 5228 5222 5219
5523 5519 5512 5502 5497 5494 5483 5475 5471 5466 5460 5456 5450 5443 5434 5428 5423 5416 5409 5401 5396 5392 5386 5381 5375 5369 5361 5354 5349 5338 5328 5318 5307 5295 5283 5273 5260 5249 5240 5232 5224 5219 5215 5213
5510 5505 5499 5491 5481 5475 5470 5465 5461 5454 5447 5443 5438 5429 5422 5415 5410 5405 5399 5390 5384 5381 5376 5371 5364 5356 5349 5342 5333 5322 5312 5301 5289 5277 5265 5254 5244 5235 5228 5220 5215 5212 5211 5210
5496 5490 5484 5476 5469 5459 5453 5449 5445 5439 5433 5427 5421 5416 5410 5402 5397 5391 5387 5381 5374 5371 5364 5357 5350 5345 5337 5328 5316 5305 5295 5284 5272 5260 5248 5239 5231 5224 5217 5212 5209 5206 5206 5207
5482 5474 5467 5460 5453 5443 5436 5431 5427 5425 5420 5414 5409 5404 5399 5392 5387 5382 5374 5367 5362 5359 5351 5345 5340 5333 5324 5310 5300 5289 5279 5267 5257 5246 5235 5227 5219 5212 5209 5205 5203 5202 5203 5206
5464 5456 5447 5440 5435 5431 5422 5413 5412 5408 5406 5401 5396 5391 5386 5378 5371 5367 5363 5358 5353 5346 5339 5332 5325 5317 5305 5293 5283 5272 5262 5252 5241 5231 5223 5218 5209 5204 5201 5199 5198 5199 5200 5205
5445 5437 5432 5427 5423 5414 5407 5402 5398 5394 5391 5384 5379 5374 5371 5368 5364 5353 5348 5343 5339 5330 5322 5316 5309 5301 5289 5279 5269 5259 5248 5237 5227 5224 5215 5208 5202 5198 5196 5194 5194 5196 5203 5207
5434 5428 5421 5418 5413 5407 5401 5397 5391 5384 5379 5372 5365 5361 5357 5353 5348 5340 5335 5329 5322 5315 5306 5299 5292 5283 5274 5265 5256 5245 5236 5226 5220 5212 5206 5199 5195 5192 5191 5190 5193 5198 5205 5213
5418 5417 5410 5404 5400 5396 5391 5387 5381 5373 5368 5363 5355 5348 5343 5338 5333 5326 5321 5313 5307 5299 5291 5285 5278 5270 5261 5252 5242 5232 5222 5216 5210 5204 5197 5192 5190 5188 5188 5190 5196 5204 5212 5220